Home   Weather   Accra   Past weeks
Flag for Ghana

Past Weather in Accra, Ghana — Yesterday and Last 2 Weeks

Now
79 °F

Passing clouds.


Feels Like: 83 °F
Forecast: 88 / 79 °F
Wind: 9 mph from West

Location: Accra Airport

Current Time: Jun 1, 2020 at 3:22:48 am

Latest Report: Jun 1, 2020 at 3:00 am


Visibility: N/A

Pressure: 29.92 "Hg

Humidity: 100%

Dew Point: 79 °F

Location of AccraLocation

Past Weather in Accra — Graph

°F

Accra Temperature Yesterday

Maximum temperature yesterday: 86 °F (at 11:00 am)
Minimum temperature yesterday: 75 °F (at 12:00 am)
Average temperature yesterday: 81 °F

High & Low Weather Summary for the Past Weeks

 TemperatureHumidityPressure
High91 °F (May 19, 12:00 pm)100% (May 25, 2:00 pm)30.01 "Hg (May 25, 2:00 pm)
Low73 °F (May 25, 1:00 pm)56% (May 19, 12:00 pm)29.80 "Hg (May 17, 4:00 pm)
Average82 °F82%29.90 "Hg
* Reported May 17 2:00 am — Jun 1 2:00 am, Accra. Weather by CustomWeather, © 2020

Note: Actual official high and low records may vary slightly from our data, if they occured in-between our weather recording intervals... More about our weather records

Accra Weather History for the Previous 24 Hours

Scroll right to see more
 ConditionsComfort  
Time TempWeatherWind HumidityBarometerVisibility
2:00 am
Mon, Jun 1
81 °FPassing clouds.8 mph89%29.92 "HgN/A
1:00 am81 °FPassing clouds.6 mph94%29.95 "HgN/A
12:00 am81 °FClear.5 mph89%29.95 "Hg10 mi
11:00 pm
Sun, May 31
81 °FClear.7 mph89%29.98 "Hg10 mi
10:00 pm81 °FClear.9 mph89%29.95 "Hg10 mi
9:00 pm81 °FClear.7 mph94%29.95 "Hg10 mi
8:00 pm81 °FClear.6 mph89%29.92 "Hg10 mi
7:00 pm81 °FClear.6 mph89%29.89 "Hg10 mi
6:00 pm82 °FSunny.7 mph79%29.89 "Hg10 mi
5:00 pm84 °FSunny.9 mph70%29.86 "Hg10 mi
4:00 pm86 °FPassing clouds.10 mph66%29.86 "HgN/A
3:00 pm86 °FPassing clouds.9 mph66%29.89 "HgN/A
2:00 pm86 °FPassing clouds.9 mph66%29.89 "HgN/A
1:00 pm86 °FPassing clouds.9 mph66%29.92 "HgN/A
12:00 pm86 °FSunny.9 mph70%29.92 "Hg10 mi
11:00 am86 °FPassing clouds.3 mph70%29.95 "HgN/A
10:00 am84 °FPassing clouds.6 mph70%29.95 "HgN/A
9:00 am82 °FPassing clouds.10 mph79%29.95 "HgN/A
8:00 am81 °FPassing clouds.3 mph84%29.95 "HgN/A
7:00 am75 °FSunny.3 mph100%29.95 "Hg10 mi
6:00 am75 °FSunny.5 mph100%29.92 "Hg10 mi
5:00 am75 °FClear.5 mph100%29.89 "Hg10 mi
4:00 am75 °FClear.2 mph94%29.89 "Hg10 mi
3:00 am75 °FClear.2 mph100%29.89 "Hg10 mi
Weather by CustomWeather, © 2020

See weather overview

Advertising